SPACEBEE-23 (46960 NORAD) Tracking and Keplerian Element Data

This shows tracking and keplerian element data for the satellite.

Feedback or suggestion? Click here.




ElementValue
Catalog46960
NameSPACEBEE-23
Epoch Orbit1491
Epoch Day62.94876987
Epoch Year2021
RAAN201.3816
Inclination97.3754
Eccentricity0.001426
Argument of Perigee311.7813
Mean Anonmoly48.2204
Mean Motion15.21442096
Decay Rate6.377E-05
L11 46960U 20085AH 21062.94876987 .00006377 00000-0 28618-3 0 9990
L22 46960 97.3754 201.3816 0014260 311.7813 48.2204 15.21442096 14919

Live tracking and technical data element details for SPACEBEE-23 (NORAD 46960). SPACEBEE-23 can be tracked NOW for your location showing map with azimuth and elevation plus other details from your city location.

Track the satellite on the map from your city or location and see movement details for azimuth, elevation, latitude, longitude, range, height, and movement on the map or in text.







IsCatalogInMostPopularTable: catalog: 46960, numindb: 27
Update: records affected: 1



GetName: 46960 SPACEBEE-23

Hit Count: updated at: Fri, 05 Mar 2021 07:19:06 GMT